Погода в Луганске

Погода в Луганске : погода сейчас, прогноз погоды и архив. Всё, что Вы хотите узнать о погоде в Луганске!

Хотите узнать прогноз погоды в Луганске? Тогда Вам сюда: Погода в Луганске

Поиск расширенной информации на нашем сайте:

Полезная информация: Насосы для бассейнов продажа и строительство бассейнов.

Другие новости

Новости СМИ2

Главная страница сайта

Новости сайта

02.10.2013

Напоминаем, что на нашем новом сайте вы можете получить высокодетализированные прогнозы погоды по пунктам России, СНГ и мира (включающие важные для авиации метеовеличины, такие как направление и скорость ветра, видимость, явления погоды, количество и форма облачности, нижняя и верхняя граница облачности), а также ознакомиться с разнообразными материалами по авиационной метеорологии и подборкой полезных ссылок на эту тему.

Сайт Метеоцентр.Азия посвящён разработке технологий оптимизации авиаметеорологического обслуживания, включая проектирование и перспективное создание нескольких автоматизированных авиаметеорологических систем:
- система выпуска высокодетальных прогностических карт явлений погоды для нижнего воздушного пространства по России и ближнему зарубежью;
- система верификации прогнозов TAF (выпускаемых синоптиками официальных АМСГ РФ и ближнего зарубежья) и AUTOTAF (выпускаемых сайтом Метеоцентр.Азия) - выявление ошибок, онлайн-сопоставление с фактической погодой METAR, автоматическое внесение коррективов в прогнозы при резком отклонении фактической погоды от прогноза, подсчёт оправдываемости прогнозов по элементам и в целом;
- система обработки, анализа и отображения авиаметеорологической информации для применения провайдерами метеорологической информации.

Рекомендуем: Мир лучших гороскопов на все случаи жизни. Общий гороскоп льва.

Погода в Луганске - сегодня

Время (UTC), дата Ветер
(°,м/с) 
Видим.   Явления Облачность Т
(°С)
Тd
(°С)
f(%) Тe
(°С)
Pmin
(гПа)
dP
(гПа)
Po
(мм)
O2
(г/м3)
Тmin Tmax R s Состояние
почвы
03 15.04.14 090 (В) 4000 м  дымка  5/0 верхняя 
[Ci]
+1.4 +1.1 98 +2  1016.9  0.7  757  303           
06 15.04.14 тихо ()   4000 м  дымка  ясно 
+8.9 +5.1 77 +9  1017.4  0.7  757  295  +0.7         
09 15.04.14 120 (ЮВ) 20000 м    8/8 1000 м 
[Cu hum]
+15.5 +4 46 +15  1017.3  757  288           
12 15.04.14 130 (ЮВ) 20000 м    8/8 600 м 
[Cu med, cong]
+16.7 +5.2 47 +18  1016.9  -0.3  757  287           
15 15.04.14 130 (ЮВ) 20000 м    6/6 600 м 
[Sc]
+14.9 +5.4 53 +15  1017.3  0.3  757  289           
18 15.04.14 130 (ЮВ) 10 км    ясно 
+11.5 +6.4 71 +11  1018.5  1.1  758  292    +18.5       
21 15.04.14 070 (В) 10 км    ясно 
+7.7 +6.1 90 +8  1019.1  0.5  759  296           
00 16.04.14 080 (В) 10 км    ясно 
+4.4 +3.4 93 +4  1019.1  -0.1  759  300           
03 16.04.14 тихо ()   4000 м  дымка  3/0 средняя, верхняя 
[Ac trans|Ci fib]
+4.8 +4.3 97 +5  1019.7  0.6  759  300           
06 16.04.14 090 (В) 10 км  {туман}  3/0 средняя 
[Ac lent]
+9.9 +6.2 78 +11  1019.7  0.2  759  294  +3.6         
09 16.04.14 070 (В) 20000 м    4/3 1000 м верхняя 
[Cu hum|Cs]
+17.4 +5.9 47 +18  1019.3  -0.2  759  287           
12 16.04.14 070 (В) 20000 м    6/6 1000 м 
[Cu med, cong]
+19.8 +5.3 39 +21  1018.1  -1.2  758  284           
15 16.04.14 090 (В) 20000 м    8/6 600 м верхняя 
[Cu med, cong|Ci]
+18.9 +5.6 42 +19  1018  -0.1  758  285           
18 16.04.14 100 (В) 10 км    ясно 
+14.2 +7.7 65 +15  1019.4  1.3  759  289           
21 16.04.14 100 (В) 10 км    ясно 
+9.9 +5.7 75 +11  1019.9  0.4  759  294           
00 17.04.14 100 (В) 10 км    3/0 верхняя 
[Ci fib]
+6.1 +4.2 88 +7  1020.8  0.8  760  299           
03 17.04.14 070 (В) 10 км    4/0 верхняя 
[Ci fib]
+4.9 +4.4 97 +6  1021.4  0.5  760  300           
06 17.04.14 тихо ()   20000 м    ясно 
+13.3 +5.3 58 +13  1021.5  0.4  761  291  +4.9         
09 17.04.14 050 (СВ) 20000 м    3/0 верхняя 
[Ci sp]
+19.5 +5.6 40 +20  1020.9  -0.5  760  285           
12 17.04.14 080 (В) 20000 м    5/5 600 м 
[Cu hum]
+21.3 +5.3 35 +21  1019.2  -1.6  759  283           
15 17.04.14 060 (СВ) 20000 м    8/8 600 м 
[Cu hum]
+20.7 +5.5 37 +21  1018.2  -1  758  283           
18 17.04.14 100 (В) 10 км    ясно 
+13.9 +6.9 63 +15  1018.8  0.4  759  290    +22       
21 17.04.14 100 (В) 10 км    4/0 верхняя 
[Ci]
+10.5 +5.9 73 +11  1018.4  -0.5  758  293           
00 18.04.14 тихо ()   10 км    ясно 
+6.3 +4.2 86 +6  1018.1  -0.4  758  298           
03 18.04.14 тихо ()   10 км    6/0 верхняя 
[Cs]
+4.1 +3.1 93 +4  1018.3  0.1  758  300           
Время (UTC), дата Ветер
(°,м/с) 
Видим.   Явления Облачность Т
(°С)
Тd
(°С)
f(%) Тe
(°С)
Pmin
(гПа)
dP
(гПа)
Po
(мм)
O2
(г/м3)
Тmin Tmax R s Состояние
почвы

Для получения пояснительной информации подведите курсор к названию столбца.

ПОГОДА в Луганске - архив

Всё, что Вы хотите узнать о погоде в Луганске - удобно и подробно!

Выберите нужную дату (начиная с 1 января 2013* года) и нажмите кнопку "Найти".
Будут отображены архивные сводки погоды по пункту Луганск, начиная с указанной даты.


Отображать данные в формате CSV (для использования в таблицах Excel)


Внимание! Наш архив погоды предназначен исключительно для личного некоммерческого использования в познавательных целях. Если Вам необходимы официальные справки о состоянии погоды (для производственных, юридических, коммерческих и т.п. целей), обращайтесь в органы Росгидромета.

*Примечание: данная дата относится к архиву по метеостанциям СССР (Россия, СНГ, Балтия).
Архив по метеостанциям Зарубежной Европы и Азии (кроме Китая) хранится 10 дней, по другим регионам земного шара (Китай, Африка, Америка, Австралия, Океания) - 1 день.

Луганск - район местоположения метеостанции


Название, широта, долгота, высота метеостанции:
Луганск (город) 48.6°ш. 39.2°д. 62 м над ур. моря [Украина]

Дополнительная информация

В oтличие oт бoльшинства пoгoдных сайтoв мы публикуем пoдрoбную метеoинфoрмацию в детальнoм прoфессиoнальнoм фoрмате.

Характеристики температуры и влажнoсти вoздуха измеряются на высoте 2 м в тени вдали oт зданий и деревьев.
Скoрoсть ветра измеряется на высoте 10 м (на урoвне рoста челoвека скoрoсть ветра ниже в 1.5-2 раза). Если метеoстанция нахoдится в гoрoде или в лесу, тo скoрoсть ветра занижена на 2-4 м/с пo сравнению с oткрытым местoм. Скoрoсть ветра над акватoриями крупных рек и oзёр, а также на вершинах хoлмoв на 2-5 м/с выше, чем в oбычных услoвиях.
Атмoсфернoе давление в разных тoчках местнoсти мoжет значительнo oтличаться oт давления на метеoстанции, в зависимoсти oт услoвий рельефа (при пoдъёме на 10 м давление пoнижается примернo на 1 мм рт.ст.).